Home   Weather   Landeck   Past weeks

Flag for Austria Past Weather in Landeck, Tyrol, Austria — Yesterday and Last 2 Weeks

Now
35 °F

Chilly.


Feels Like: 32 °F
Forecast: 27 / 41 °F
Wind: 3 mph from South

Location: Landeck

Current Time: Dec 11, 2016 at 9:20:19 am

Latest Report: Dec 11, 2016 at 8:00 am


Visibility: N/A

Pressure: 30.27 "Hg (27.46 "Hg at 784m altitude)

Humidity: 53%

Dew Point: 19 °F

Location of LandeckLocation

Past Weather in Landeck — Graph

°F

Landeck Temperature Yesterday

Maximum temperature yesterday: 42 °F (at 1:00 pm)
Minimum temperature yesterday: 32 °F (at 7:00 pm)
Average temperature yesterday: 35 °F

High & Low Weather Summary for the Past Weeks

 TemperatureHumidityPressure
High47 °F (Nov 27, 1:00 pm)96% (Nov 26, 8:00 am)30.77 "Hg (Nov 26, 8:00 am)
Low21 °F (Nov 29, 8:00 am)30% (Dec 9, 4:00 pm)29.95 "Hg (Nov 27, 2:00 pm)
Average33 °F66%30.42 "Hg
* Reported Nov 26 8:00 am — Dec 11 8:00 am, Landeck, Weather by CustomWeather, © 2016

Note: Actual official high and low records may vary slightly from our data, if they occured in-between our weather recording intervals... More about our weather records

Advertising

Landeck Weather History for the Previous 24 Hours

Scroll right to see more
 ConditionsComfort  
Time TempWeatherWind HumidityBarometerVisibility
8:00 am
Sun, Dec 11
35 °FChilly.3 mph53%30.27 "HgN/A
7:00 am34 °FChilly.3 mph56%30.26 "HgN/A
6:00 am34 °FChilly.3 mph56%30.27 "HgN/A
5:00 am34 °FChilly.5 mph59%30.27 "HgN/A
4:00 am34 °FChilly.5 mph59%30.30 "HgN/A
3:00 am35 °FChilly.5 mph60%30.32 "HgN/A
2:00 am33 °FChilly.3 mph66%30.35 "HgN/A
1:00 amN/APassing clouds.26 mphN/AN/A1 mi
12:00 am34 °FChilly.3 mph65%30.37 "HgN/A
10:00 pm
Sat, Dec 10
35 °FChilly.1 mph67%30.40 "HgN/A
9:00 pm34 °FChilly.1 mph70%30.41 "HgN/A
8:00 pm35 °FChilly.2 mph67%30.41 "HgN/A
7:00 pm32 °FChilly.1 mph76%30.43 "HgN/A
6:00 pm33 °FChilly.1 mph72%30.42 "HgN/A
5:00 pm34 °FChilly.1 mph70%30.40 "HgN/A
4:00 pm38 °FChilly.1 mph61%30.37 "HgN/A
3:00 pm40 °FQuite cool.2 mph54%30.35 "HgN/A
2:00 pm41 °FQuite cool.2 mph55%30.36 "HgN/A
1:00 pm42 °FQuite cool.5 mph52%30.39 "HgN/A
12:00 pm39 °FChilly.2 mph60%30.44 "HgN/A
11:00 am36 °FChilly.3 mph64%30.49 "HgN/A
10:00 am35 °FChilly.3 mph66%30.52 "HgN/A
9:00 am33 °FChilly.2 mph68%30.53 "HgN/A
Weather by CustomWeather, © 2016

See weather overviewHow to use our weather pages